GFSGL_850_temp_225.txt.gz
Temp
1 1 1 1 1 1 0 1 0 0 0 0 1 1 1 1 1 1 1 1 0 0 1 2 2 3 3 4 6 6 8 8 8 5 5 6 7 7 5 5 4 6 3
0 0 0 0 -0 -0 -0 -0 -1 -1 -1 -0 -0 0 0 0 0 0 0 -0 -0 0 1 2 3 3 4 5 6 7 7 8 8 5 3 4 5 3 5 4 3 2 1
-0 -0 -1 -1 -1 -1 -2 -2 -1 -1 -1 -1 -1 -1 -1 -0 -0 -1 -1 -1 -0 -0 1 2 3 4 4 5 6 6 8 7 7 7 2 2 2 1 1 1 1 1 0
-1 -2 -2 -2 -2 -2 -1 -1 -1 -1 -1 -1 -1 -1 -1 -1 -1 -0 -0 -0 1 1 2 2 3 4 5 5 5 6 7 7 5 4 2 0 1 -1 0 0 0 -1 -2
-2 -2 -2 -2 -1 -1 -1 -1 -1 -1 -1 -1 -1 -1 -1 -0 0 1 1 1 1 2 2 2 3 4 4 5 6 7 7 7 4 2 1 -0 -0 -1 -0 -0 -0 -0 -3
-2 -2 -2 -1 -2 -1 -1 -1 -1 -1 -1 -1 -1 -0 0 1 2 2 0 1 1 2 3 4 4 5 5 6 6 6 6 7 3 2 1 -0 -1 -1 -1 0 0 -2 -3
-2 -2 -1 -1 -1 -1 -1 -1 -1 -1 -1 -1 -0 0 1 1 2 2 2 1 2 3 4 5 5 6 6 6 5 4 3 2 2 2 1 0 -0 -0 -0 -0 -1 -1 -3
-1 -1 -1 -1 -1 -1 -1 -1 -0 0 1 0 2 2 2 2 3 4 4 4 4 4 4 5 6 6 5 3 1 0 -0 -0 0 1 1 -0 -0 -1 -0 -0 -1 -2 -5
-1 -0 -1 -1 -1 -1 -1 0 1 1 1 3 5 4 4 3 3 3 5 5 4 3 3 4 5 3 1 1 2 1 0 -0 -0 0 -1 -2 -2 -2 -1 -1 -3 -4 -6
-0 -0 -0 -1 -1 -1 -0 0 0 0 1 3 3 3 3 2 3 3 4 2 2 2 2 2 3 1 1 2 2 0 0 -1 0 -3 -4 -4 -3 -4 -4 -2 -2 -3 -5
-0 1 0 1 -0 -0 -0 -0 -0 0 1 1 1 1 2 1 1 4 3 3 2 -0 -1 -1 -1 2 1 2 2 3 3 -0 -1 -2 -3 -4 -4 -4 -4 -4 -4 -4 -4
0 1 1 1 0 -0 -0 -0 -1 -0 -0 -0 -0 -0 -0 0 2 1 2 2 1 0 -1 -1 -1 1 2 2 2 1 0 -0 -1 -2 -3 -4 -4 -4 -5 -5 -4 -4 -4
1 1 1 0 0 -0 -0 -1 -1 -1 -1 -1 -1 -1 -1 -1 -1 0 -0 -0 0 -1 -2 -2 1 1 1 -0 -0 -0 -0 -0 -1 -2 -3 -4 -4 -4 -4 -4 -5 -5 -5
0 0 0 -0 -0 0 -0 -0 -1 -0 -0 -1 -1 -1 -2 -2 -1 0 2 3 2 0 1 1 1 1 1 -1 -1 -2 -1 -1 -1 -2 -3 -4 -5 -5 -5 -5 -4 -4 -4
0 -0 -1 -1 -1 -1 -1 -0 0 1 3 2 1 0 3 1 1 3 3 3 3 2 3 2 1 1 0 -1 -1 -1 -1 -1 -2 -3 -4 -4 -4 -4 -4 -4 -4 -4 -5
-0 -0 -1 -1 -1 -1 -1 -1 -1 -0 1 2 2 4 2 2 2 3 3 3 3 3 3 2 1 -0 -1 -1 -1 -2 -2 -1 -2 -3 -3 -3 -4 -4 -5 -5 -5 -5 -5
-0 -0 -1 -1 -0 -0 -1 -1 -1 -1 1 2 2 2 3 2 3 3 3 3 3 3 2 1 -0 -0 -1 -1 -1 -2 -2 -3 -3 -3 -3 -4 -4 -4 -4 -4 -5 -5 -5
-0 0 1 1 1 1 2 1 1 1 -1 -2 -0 3 3 3 3 3 3 3 3 2 1 0 -1 -1 -1 -2 -2 -2 -3 -3 -3 -3 -3 -3 -4 -4 -4 -5 -5 -5 -5
0 1 1 2 2 3 3 4 4 3 3 3 3 3 3 3 3 3 4 4 2 1 0 -0 -0 -1 -1 -1 -2 -2 -2 -2 -2 -2 -3 -3 -3 -3 -4 -4 -5 -5 -5
1 1 2 3 3 4 4 4 4 3 3 3 3 3 3 3 3 3 3 3 2 1 1 0 0 0 0 0 -0 -0 -1 -1 -1 -1 -2 -2 -3 -3 -3 -4 -5 -5 -5
1 1 2 3 3 4 4 4 3 3 3 2 2 2 3 4 3 3 3 2 2 1 1 1 1 1 1 0 0 0 0 -1 -1 -1 -1 -2 -2 -2 -4 -4 -4 -4 -5
1 2 2 3 3 4 4 4 4 4 3 3 2 2 3 3 3 2 2 2 1 1 1 1 1 1 1 1 1 1 0 -0 -1 -1 -1 -2 -2 -2 -3 -3 -4 -4 -4
1 2 2 3 3 4 4 4 4 4 3 3 2 3 3 3 3 2 2 2 2 2 1 1 1 1 0 0 0 1 1 -0 -1 -1 -1 -1 -1 -2 -2 -2 -2 -3 -3
1 2 2 3 3 4 4 4 4 4 3 3 3 3 3 3 3 3 2 2 2 2 2 2 2 1 1 1 1 1 0 0 -0 -0 -1 -0 -0 -1 -1 -1 -1 -2 -2
1 2 3 3 4 4 4 4 4 4 3 4 3 3 3 3 3 3 3 2 2 2 2 2 2 2 1 1 1 1 1 1 0 0 0 0 0 0 0 0 -0 -0 -1
1 2 3 3 4 4 4 4 4 4 4 4 4 3 3 3 3 3 3 3 3 3 2 2 2 2 2 2 2 2 1 1 1 1 1 1 1 1 1 1 1 0 -0

GFSGL_850_temp_228.txt.gz
Temp
-1 -1 -1 -1 -1 -1 -2 -2 -2 -2 -2 -2 -1 -1 -1 -0 0 1 1 1 1 1 1 0 1 1 2 2 2 2 4 5 6 7 4 6 9 8 7 7 4 4 4
-2 -2 -2 -2 -2 -2 -2 -2 -2 -2 -2 -2 -2 -2 -2 -1 -0 -0 -0 0 0 0 0 0 0 1 1 2 2 3 4 5 6 6 2 4 6 6 5 4 3 3 1
-3 -3 -2 -2 -2 -2 -2 -2 -2 -2 -2 -2 -1 -1 -1 -1 -1 -1 -1 -1 -1 -0 -1 -1 -0 1 2 3 4 4 5 6 5 5 2 1 3 3 4 2 1 -0 -0
-2 -2 -2 -2 -2 -2 -1 -1 -1 -1 -1 -1 -1 -1 -1 -1 -1 -2 -2 -1 -1 -1 -1 -1 0 1 2 3 5 4 5 5 5 4 2 1 1 1 1 2 -0 -1 -1
-2 -1 -1 -1 -1 -1 -1 -1 -1 -1 -1 -1 -1 -1 -1 -1 -1 -1 -0 -0 -1 -0 0 0 1 2 2 4 4 5 5 5 5 2 1 0 -1 -1 0 -1 -1 -1 -3
-1 -1 -1 -1 -1 -1 -1 -1 -1 -1 -1 -1 -1 -1 -1 -1 -1 -0 -0 0 1 1 1 2 2 2 3 4 4 5 5 5 4 5 -0 -1 -1 -1 -1 -1 -0 -2 -4
-1 -1 -1 -1 -1 -1 -1 -0 -0 -0 -0 0 0 -0 0 0 0 1 1 1 0 1 2 2 3 3 4 5 5 5 4 4 5 3 1 -1 -1 -1 -0 -1 -2 -2 -4
-1 -1 -1 -1 -1 -1 -0 -0 -0 1 3 2 2 1 2 2 2 2 2 2 2 2 2 3 4 4 5 5 3 2 1 -1 0 1 -1 -1 -0 -1 -2 -1 -2 -4 -6
-0 -0 -0 -0 -0 -0 -0 -0 0 1 3 3 2 2 2 3 3 3 3 2 2 3 3 3 5 5 4 5 4 1 -1 -2 -2 -1 -1 -2 -3 -1 -1 -1 -3 -4 -6
-0 0 -0 -1 -1 -1 -0 -0 -0 1 2 2 1 0 1 1 1 1 2 1 1 0 -0 -0 0 -0 0 2 1 1 -1 -2 -2 -3 -4 -4 -3 -4 -3 -2 -3 -4 -5
-0 -0 -1 -1 -1 -1 -1 -1 -0 -0 0 -0 -0 -0 -0 0 0 1 2 2 0 -0 -0 -1 -1 -0 -0 -0 -0 -0 -0 -1 -3 -2 -3 -4 -4 -4 -4 -5 -5 -4 -4
-1 -1 -1 -1 -1 -1 -1 -1 -1 -1 -0 -1 -1 -1 -1 -1 0 0 -0 0 0 -1 -2 -2 -2 -2 -1 -1 -1 -1 -1 -1 -2 -3 -4 -4 -5 -5 -5 -5 -4 -4 -4
-1 -1 -1 -0 -0 -1 -1 -1 -1 0 0 -1 -1 -1 -2 -1 -2 -2 -2 -1 -1 -2 -3 -3 -2 -3 -3 -5 -3 -2 -2 -2 -3 -3 -4 -5 -5 -5 -5 -5 -4 -4 -4
-1 -1 -1 -1 -0 -0 -0 -0 1 0 -1 -1 -1 -2 -0 0 1 2 2 0 -0 -1 -1 -1 -1 -1 -1 -2 -2 -3 -3 -2 -2 -3 -4 -5 -5 -5 -5 -4 -4 -4 -4
-1 -1 -1 -1 -1 -1 -1 -1 -1 -1 0 0 -1 0 1 0 -1 1 2 1 1 1 1 -0 -1 -1 -2 -2 -2 -2 -2 -2 -3 -4 -4 -4 -4 -4 -5 -5 -5 -5 -5
-0 -0 -1 -0 -1 -2 -2 -2 -3 -2 0 0 1 2 -2 -1 -0 1 2 2 1 1 2 0 -1 -1 -2 -2 -2 -3 -3 -2 -3 -3 -3 -4 -4 -4 -4 -5 -5 -5 -5
0 1 2 2 2 1 -0 -1 -1 -1 1 -1 0 1 2 2 2 2 2 2 2 2 2 0 -0 -1 -2 -2 -2 -2 -2 -3 -3 -3 -3 -3 -4 -4 -4 -5 -5 -5 -6
1 2 2 3 3 4 4 3 2 3 1 -1 0 2 2 2 2 2 2 3 3 2 1 0 -1 -1 -1 -2 -2 -3 -3 -3 -3 -3 -3 -4 -4 -4 -5 -6 -6 -6 -6
1 1 2 3 3 3 3 3 3 2 2 2 2 2 2 2 2 2 3 3 1 1 0 -1 -1 -1 -1 -2 -2 -3 -3 -3 -3 -3 -4 -4 -4 -4 -5 -5 -6 -6 -6
1 1 2 3 3 4 4 4 3 3 2 2 2 2 2 3 3 3 2 2 1 0 0 -0 -1 -1 -1 -1 -2 -2 -2 -3 -3 -3 -3 -3 -4 -4 -4 -5 -5 -5 -6
2 2 2 3 4 4 4 4 4 3 3 2 2 2 3 3 2 2 2 1 1 0 0 -0 -0 -1 -1 -1 -1 -1 -1 -2 -2 -2 -3 -3 -3 -3 -4 -4 -4 -5 -5
2 3 3 4 4 4 4 4 4 3 3 3 2 2 3 3 2 2 1 1 0 0 0 0 -0 -0 -1 -0 -0 -0 -1 -1 -2 -2 -2 -2 -2 -2 -2 -3 -3 -4 -4
2 3 3 3 4 4 4 4 4 3 3 3 2 2 2 2 2 2 1 1 1 1 0 1 1 0 -0 -0 -0 -0 -0 -0 -1 -1 -1 -1 -1 -1 -1 -2 -2 -3 -3
2 3 3 4 4 4 4 4 4 3 3 3 3 2 2 2 2 2 2 2 1 1 1 1 1 1 0 0 0 1 1 0 0 0 -0 0 -0 -0 -0 -1 -1 -2 -2
2 3 3 3 4 4 4 4 3 3 3 3 3 3 2 2 2 2 2 2 2 2 1 1 1 1 1 1 1 1 1 1 1 1 1 1 1 0 0 0 -0 -1 -1
2 3 3 3 4 4 4 4 4 3 3 3 3 3 3 3 2 2 2 2 2 2 2 2 2 2 2 2 2 2 2 2 2 2 2 2 1 1 1 1 0 -0 -1

GFSGL_850_temp_231.txt.gz
Temp
-3 -3 -2 -2 -2 -2 -2 -2 -2 -2 -3 -2 -2 -3 -3 -2 -2 -1 -1 -0 0 1 1 1 1 1 1 0 1 2 2 3 3 5 6 6 6 8 8 9 8 8 5
-2 -2 -2 -2 -2 -2 -2 -2 -2 -2 -2 -2 -1 -2 -2 -2 -2 -2 -1 -1 -0 0 1 1 0 -0 0 -0 0 2 2 2 3 4 5 4 4 5 8 8 5 4 2
-2 -2 -2 -2 -1 -1 -1 -1 -1 -1 -1 -1 -1 -1 -1 -1 -1 -1 -1 -1 -1 -0 -0 -0 -1 -1 -1 -0 0 1 2 3 3 4 3 1 2 1 6 2 1 0 0
-2 -2 -2 -2 -2 -2 -2 -1 -1 -1 -1 -1 -1 -1 -1 -1 -1 -1 -1 -1 -2 -1 -1 -1 -1 -1 -1 0 2 3 3 3 4 3 3 1 -0 1 2 1 0 -0 -1
-2 -2 -1 -1 -1 -1 -1 -1 -1 -1 -1 -1 -1 -1 -1 -1 -1 -1 -1 -1 -1 -1 -0 -1 -1 -1 0 1 2 2 3 4 3 4 2 -0 -0 -1 -1 -1 -1 -2 -3
-1 -1 -0 -0 -0 -1 -1 -1 -0 -0 -0 -1 -1 -1 -1 -1 -0 -0 -1 -1 -0 -0 0 0 0 1 1 2 3 3 4 4 3 3 -0 -1 -1 -1 -2 -2 -3 -3 -4
-1 -1 -1 -1 -1 -1 -0 0 1 3 2 1 0 -0 -0 -0 -0 -0 0 0 0 -0 0 1 1 1 2 3 3 4 4 3 3 2 1 -0 -2 -2 -2 -2 -1 -2 -4
-1 -1 -1 -1 -1 -0 -0 -0 1 2 1 1 1 1 1 1 1 1 1 1 0 1 1 1 2 2 3 3 3 2 1 0 1 2 -0 -1 -1 -1 -0 -1 -2 -3 -5
-2 -1 -1 -1 -1 -1 -0 -0 -0 1 1 1 1 2 3 3 2 1 2 2 2 2 2 2 3 3 3 3 3 1 -1 -2 -2 -2 -1 -2 -2 -2 -2 -2 -5 -6 -6
-1 -2 -1 -1 -1 -1 -1 -1 -1 -1 -1 -1 -1 -0 0 1 1 1 1 0 0 0 1 1 2 1 2 3 1 1 -2 -3 -2 -3 -4 -4 -2 -3 -4 -4 -4 -5 -6
-1 -1 -1 -1 -1 -1 -1 -1 -1 -1 -1 -1 -1 -1 -1 -1 -1 -0 -0 -1 -1 -1 -1 -2 -2 -1 1 0 -1 -1 -2 -2 -3 -2 -3 -3 -3 -4 -5 -5 -5 -5 -4
-1 -1 -1 -1 -1 -1 -0 -1 -1 -1 -1 -2 -1 -1 -1 -1 -1 -1 -1 -2 -2 -2 -3 -3 -2 -1 -1 -1 -2 -2 -2 -2 -2 -3 -4 -5 -5 -5 -4 -4 -4 -4 -4
-1 -2 -1 -0 0 0 1 1 0 -0 -1 -2 -3 -3 -3 -3 -3 -3 -3 -3 -3 -3 -3 -4 -3 -4 -5 -5 -4 -2 -2 -2 -3 -4 -4 -4 -4 -4 -4 -4 -5 -5 -5
0 -1 -2 -2 -0 1 1 1 1 1 1 1 -1 -2 -2 -2 -1 -0 1 -0 -1 -1 -1 -1 -1 -1 -1 -2 -2 -2 -2 -2 -3 -4 -4 -4 -5 -5 -5 -5 -5 -5 -5
0 0 1 -0 -3 -3 -3 -3 -4 -3 -1 -1 -2 -0 -0 -2 -3 -1 1 1 0 -0 0 -1 -2 -2 -2 -2 -3 -3 -3 -3 -4 -4 -5 -5 -5 -5 -5 -5 -5 -5 -5
2 2 1 1 -0 -2 -4 -4 -4 -4 -4 -1 -0 -0 -2 -1 -0 1 1 1 0 -0 0 -1 -2 -2 -3 -3 -3 -4 -4 -4 -4 -4 -5 -5 -5 -5 -5 -5 -5 -5 -6
2 2 3 3 2 2 1 0 -1 -2 -3 -1 1 1 1 1 1 1 1 1 1 1 0 -1 -2 -2 -3 -3 -4 -4 -4 -4 -3 -4 -4 -4 -5 -5 -5 -5 -6 -6 -7
2 2 3 3 3 3 3 2 2 3 2 1 1 1 1 1 1 1 2 2 1 0 -1 -2 -2 -2 -2 -3 -3 -3 -4 -4 -4 -4 -4 -4 -5 -5 -5 -6 -6 -6 -6
2 2 3 3 3 4 3 3 3 3 2 1 1 1 1 1 1 2 3 2 0 -1 -1 -1 -2 -2 -2 -2 -3 -3 -3 -3 -4 -4 -5 -5 -5 -5 -6 -7 -7 -6 -6
2 2 2 3 3 4 4 4 3 3 2 2 2 1 1 2 2 2 2 1 0 -1 -1 -1 -1 -1 -2 -2 -2 -2 -3 -3 -4 -4 -4 -4 -4 -5 -5 -5 -6 -6 -6
2 2 3 3 4 4 4 4 3 3 3 2 1 1 2 3 2 2 1 0 -0 -1 -1 -1 -1 -1 -1 -1 -2 -2 -2 -3 -3 -3 -3 -4 -4 -4 -4 -5 -5 -5 -6
2 2 3 4 4 4 4 3 3 3 3 3 2 1 2 3 2 1 1 0 -0 -0 -1 -1 -1 -1 -1 -1 -1 -1 -1 -2 -2 -2 -2 -2 -3 -3 -3 -4 -4 -5 -5
2 3 3 3 4 4 4 3 3 3 3 3 2 2 2 2 2 1 1 0 0 -0 -0 0 0 -0 -0 -0 -0 -0 0 -0 -1 -1 -1 -1 -2 -2 -2 -3 -3 -3 -4
2 3 3 3 3 4 4 3 3 3 3 3 2 2 2 2 2 1 1 1 1 0 0 1 1 1 1 1 1 1 1 1 0 0 0 0 -0 -1 -1 -1 -2 -2 -2
2 3 3 3 3 4 4 3 3 3 3 3 2 2 2 2 2 2 1 1 1 1 1 1 1 1 2 2 2 2 2 1 1 1 1 1 1 0 -0 -0 -1 -1 -2
2 3 3 3 3 3 4 3 3 3 3 3 2 2 2 2 2 2 2 2 2 2 2 2 2 2 2 2 2 2 2 2 2 1 1 1 1 1 1 0 -0 -1 -1

GFSGL_850_temp_237.txt.gz
Temp
-2 -1 -1 -1 -1 -1 -1 -1 -1 -2 -2 -2 -2 -2 -2 -1 -1 -2 -1 -1 -1 -1 0 0 2 2 3 3 3 3 2 2 2 2 3 3 3 4 5 7 9 9 10
-1 -1 -1 -1 -1 -1 -1 -1 -1 -1 -1 -2 -2 -2 -1 -2 -2 -2 -2 -1 -1 -1 -0 0 1 1 2 2 3 2 2 2 2 2 3 2 2 3 4 6 7 8 9
-1 -1 -1 -1 -1 -1 -0 0 1 0 -1 -1 -1 -1 -1 -1 -1 -2 -1 -1 -1 -1 -1 -0 -0 1 2 2 2 2 2 2 2 2 2 2 2 2 3 4 3 4 6
-1 -1 -1 -1 -1 -0 -0 0 1 0 -1 -1 -1 -1 -1 -1 -1 -1 -2 -1 -1 -1 -1 -1 -1 1 2 2 2 2 2 1 1 1 2 2 2 2 2 1 1 1 1
-1 -1 -1 -1 -1 -0 -0 -1 -0 -0 -0 -1 -1 -1 -1 -1 -1 -1 -1 -1 -1 -1 -1 -1 -1 0 1 1 1 1 0 -0 0 1 1 1 1 1 1 -1 -2 0 0
-2 -2 -1 -1 -1 -1 -1 -0 -0 -0 0 0 -0 -1 -1 -1 -1 -0 -1 -1 -1 -1 -1 -0 -1 -1 -0 0 0 1 0 1 1 2 2 1 0 0 -2 -2 -2 -2 -2
-2 -2 -2 -2 -2 -1 -1 -1 -1 -1 1 1 0 -0 -1 -1 -1 -0 0 0 -0 -0 -1 -0 -0 -0 -0 0 0 1 1 2 2 2 2 -0 -1 -2 -2 -2 -2 -4 -3
-1 -1 -2 -2 -2 -2 -1 -1 -1 -1 -1 -1 -0 -0 0 0 0 0 1 1 1 0 -0 -0 0 0 0 1 1 1 2 1 1 0 -0 -1 -2 -3 -3 -2 -2 -3 -3
-2 -2 -1 -2 -2 -2 -2 -2 -2 -1 -1 -1 -1 -0 0 0 1 1 1 1 1 1 1 1 1 1 1 1 1 1 -1 -2 -3 -3 -3 -3 -3 -2 -2 -2 -4 -4 -4
-2 -2 -2 -2 -2 -2 -2 -2 -2 -2 -2 -2 -1 -2 -1 -2 -0 0 1 1 1 1 1 1 0 -1 -2 -0 -1 -3 -4 -4 -4 -4 -4 -4 -4 -4 -4 -3 -4 -4 -5
-2 -2 -2 -2 -2 -2 -2 -2 -2 -2 -3 -3 -3 -2 -2 -2 -2 -1 -1 -1 -1 -1 -2 -3 -3 -3 -3 -3 -3 -4 -4 -4 -4 -4 -4 -4 -5 -5 -5 -5 -5 -4 -5
-2 -2 -3 -3 -2 -2 -3 -2 -2 -2 -2 -3 -3 -3 -3 -3 -3 -3 -3 -3 -3 -3 -4 -4 -4 -4 -4 -4 -4 -4 -4 -5 -6 -5 -5 -6 -6 -6 -6 -5 -4 -4 -5
-2 -2 -2 -3 -2 -2 -3 -2 -3 -3 -2 -3 -3 -4 -4 -4 -4 -4 -4 -4 -4 -4 -5 -5 -5 -5 -5 -5 -5 -5 -5 -5 -5 -5 -6 -5 -5 -6 -6 -6 -5 -5 -5
-2 -2 -2 -2 -3 -1 -2 -3 -2 -3 -3 -3 -4 -4 -4 -4 -4 -4 -4 -4 -4 -4 -4 -4 -4 -4 -4 -5 -5 -4 -5 -5 -5 -5 -5 -5 -5 -5 -5 -5 -5 -5 -4
-2 -2 -2 -2 -2 -2 -3 -3 -4 -4 -3 -4 -4 -4 -4 -4 -4 -4 -3 -4 -4 -3 -3 -4 -4 -4 -5 -5 -5 -5 -4 -4 -5 -5 -5 -5 -5 -5 -5 -5 -5 -6 -6
1 -0 -1 -2 -2 -2 -2 -2 -1 -1 -3 -3 -3 -3 -4 -4 -3 -2 -2 -3 -3 -2 -3 -4 -5 -5 -5 -5 -5 -5 -5 -5 -5 -5 -5 -5 -5 -5 -5 -5 -5 -5 -6
0 1 -0 -1 -1 -2 -0 -0 -1 -1 0 -0 -1 -2 -2 -2 -1 -0 0 -0 -1 1 -3 -4 -5 -5 -5 -5 -5 -5 -5 -5 -5 -5 -5 -5 -5 -5 -5 -5 -6 -6 -6
2 2 1 1 -1 -1 -1 -0 0 -1 -1 -1 -1 -0 0 1 1 1 1 2 1 -2 -3 -4 -5 -5 -5 -5 -5 -5 -6 -6 -5 -5 -5 -5 -6 -6 -6 -6 -6 -6 -6
2 3 2 1 1 -0 -0 -0 0 1 0 -1 -1 -0 -0 1 1 1 3 1 -1 -2 -3 -3 -3 -4 -4 -5 -5 -5 -5 -5 -5 -6 -6 -6 -6 -6 -6 -6 -6 -6 -6
2 2 3 3 2 1 1 1 2 2 2 1 1 -0 0 2 2 2 1 -0 -1 -2 -2 -2 -2 -2 -3 -3 -3 -4 -4 -4 -4 -5 -5 -6 -6 -5 -5 -5 -6 -6 -6
2 3 3 3 3 2 2 1 2 2 2 2 2 1 -0 2 1 2 1 0 -1 -1 -1 -1 -1 -1 -2 -2 -2 -2 -3 -3 -3 -4 -4 -4 -4 -4 -4 -4 -4 -5 -5
2 3 3 3 3 3 2 2 2 2 2 2 2 1 1 2 2 1 1 0 -0 -0 -1 -1 -1 -1 -1 -1 -1 -1 -2 -2 -2 -3 -3 -3 -2 -2 -3 -3 -4 -4 -4
2 3 3 3 3 3 3 3 2 2 2 3 2 2 2 2 2 2 1 1 1 1 1 0 -0 -0 0 -0 -0 0 -1 -1 -1 -2 -1 -0 -0 -1 -1 -2 -2 -2 -2
2 2 3 3 3 3 3 3 2 3 3 3 2 2 2 2 2 2 1 1 1 1 1 1 1 0 0 1 0 0 0 0 -0 -0 0 1 1 1 0 -0 -1 -1 -2
2 2 3 3 3 3 3 3 3 3 3 3 2 2 2 2 2 2 2 2 2 2 2 2 2 1 1 1 1 1 1 1 1 1 1 1 1 1 1 0 0 0 -0
2 2 2 3 3 3 3 3 3 3 3 3 3 2 2 2 2 2 2 2 2 2 2 2 2 2 2 1 1 1 1 1 1 1 1 1 1 1 1 1 1 1 1